カタログに戻る

OPS 4682 DEB

運用中PO
NORAD 38409·DEBRIS·🇺🇸 United States

打ち上げ Apr 3, 1965 から Vandenberg Space Force Base

Loading…

次のパス (今後24時間)

TLE

最新Source: Space-Track

元期: Sep 14, 2026, 01:32 UTC

1 38409U 65027DN  26257.06416849  .00000478  00000-0  15754-2 0  9997
2 38409  90.2947  29.4805 0037983 114.5747 245.9340 12.99209581199758

AllMySatでOPS 4682 DEBをリアルタイム追跡

Download on the App Store